When you browse on this site, cookies collect data to enhance your experience and personalize the content and advertising you see.
Visit our Privacy Policy to learn more. By continuing to use the site, you agree to this use of cookies and data.
  • In United Kingdom
  • List of Countries
  • For 7 days
  • Water Temperature
  • Weather Map
  • Weather Widgets
  • user-avatar
    Login

    Hourly Weather Abingdon

    Today, 17 September, Tuesday

    Time Temperature Precipitation Wind Pressure Humidity
    00:00 +11°C° 0 mm 3 mps 762 mmHg 84%
    01:00 +12°C° 0 mm 2 mps 762 mmHg 86%
    02:00 +10°C° 0 mm 2 mps 761 mmHg 89%
    03:00 +9°C° 0 mm 2 mps 761 mmHg 91%
    04:00 +9°C° 0 mm 2 mps 762 mmHg 92%
    05:00 +8°C° 0 mm 2 mps 762 mmHg 93%
    06:00 +8°C° 0 mm 2 mps 762 mmHg 95%
    07:00 +10°C° 0 mm 3 mps 763 mmHg 87%
    08:00 +12°C° 0 mm 3 mps 763 mmHg 79%
    09:00 +13°C° 0 mm 4 mps 763 mmHg 72%
    10:00 +15°C° 0 mm 4 mps 763 mmHg 67%
    11:00 +17°C° 0 mm 4 mps 763 mmHg 63%
    12:00 +18°C° 0 mm 4 mps 763 mmHg 58%
    13:00 +18°C° 0 mm 4 mps 763 mmHg 58%
    14:00 +18°C° 0 mm 4 mps 763 mmHg 57%
    15:00 +18°C° 0 mm 4 mps 763 mmHg 57%
    16:00 +17°C° 0 mm 3 mps 764 mmHg 62%
    17:00 +16°C° 0 mm 3 mps 764 mmHg 67%
    18:00 +15°C° 0 mm 2 mps 764 mmHg 72%
    19:00 +13°C° 0 mm 3 mps 764 mmHg 74%
    20:00 +12°C° 0 mm 3 mps 765 mmHg 76%
    21:00 +10°C° 0 mm 3 mps 765 mmHg 78%
    22:00 +10°C° 0 mm 3 mps 765 mmHg 79%
    23:00 +9°C° 0 mm 2 mps 765 mmHg 80%

    Tomorrow, 18 September, Wednesday

    Time Temperature Precipitation Wind Pressure Humidity
    00:00 +8°C° 0 mm 2 mps 766 mmHg 81%
    01:00 +8°C° 0 mm 2 mps 766 mmHg 82%
    02:00 +8°C° 0 mm 2 mps 766 mmHg 82%
    03:00 +7°C° 0 mm 2 mps 766 mmHg 83%
    04:00 +7°C° 0 mm 2 mps 766 mmHg 84%
    05:00 +8°C° 0 mm 1 mps 766 mmHg 85%
    06:00 +8°C° 0 mm 1 mps 766 mmHg 86%
    07:00 +9°C° 0 mm 2 mps 766 mmHg 79%
    08:00 +10°C° 0 mm 2 mps 767 mmHg 71%
    09:00 +13°C° 0 mm 2 mps 767 mmHg 63%
    10:00 +14°C° 0 mm 2 mps 767 mmHg 59%
    11:00 +16°C° 0 mm 2 mps 767 mmHg 55%
    12:00 +17°C° 0 mm 2 mps 766 mmHg 50%
    13:00 +17°C° 0 mm 2 mps 766 mmHg 50%
    14:00 +18°C° 0 mm 2 mps 766 mmHg 49%
    15:00 +18°C° 0 mm 2 mps 766 mmHg 49%
    16:00 +17°C° 0 mm 2 mps 766 mmHg 55%
    17:00 +16°C° 0 mm 2 mps 766 mmHg 60%
    18:00 +15°C° 0 mm 1 mps 766 mmHg 66%
    19:00 +14°C° 0 mm 1 mps 766 mmHg 68%
    20:00 +13°C° 0 mm 1 mps 766 mmHg 71%
    21:00 +11°C° 0 mm 0 mps 767 mmHg 73%
    22:00 +11°C° 0 mm 0 mps 767 mmHg 75%
    23:00 +11°C° 0 mm 0 mps 767 mmHg 77%

    Day after tomorrow, 19 September, Thursday

    Time Temperature Precipitation Wind Pressure Humidity
    00:00 +10°C° 0 mm 0 mps 767 mmHg 79%
    01:00 +10°C° 0 mm 0 mps 767 mmHg 81%
    02:00 +10°C° 0 mm 0 mps 767 mmHg 83%
    03:00 +10°C° 0 mm 0 mps 766 mmHg 84%
    04:00 +9°C° 0 mm 0 mps 767 mmHg 85%
    05:00 +9°C° 0 mm 0 mps 767 mmHg 86%
    06:00 +9°C° 0 mm 0 mps 767 mmHg 87%
    07:00 +12°C° 0 mm 1 mps 767 mmHg 81%
    08:00 +14°C° 0 mm 1 mps 767 mmHg 74%
    09:00 +16°C° 0 mm 1 mps 768 mmHg 68%
    10:00 +16°C° 0 mm 0 mps 767 mmHg 64%
    11:00 +18°C° 0 mm 0 mps 767 mmHg 59%
    12:00 +19°C° 0 mm 0 mps 767 mmHg 55%
    13:00 +21°C° 0 mm 1 mps 767 mmHg 54%
    14:00 +22°C° 0 mm 1 mps 767 mmHg 54%
    15:00 +22°C° 0 mm 1 mps 766 mmHg 53%
    16:00 +21°C° 0 mm 1 mps 766 mmHg 59%
    17:00 +19°C° 0 mm 1 mps 766 mmHg 64%
    18:00 +18°C° 0 mm 1 mps 766 mmHg 70%
    19:00 +16°C° 0 mm 1 mps 766 mmHg 73%
    20:00 +15°C° 0 mm 1 mps 766 mmHg 76%
    21:00 +15°C° 0 mm 1 mps 766 mmHg 79%
    22:00 +14°C° 0 mm 1 mps 766 mmHg 81%
    23:00 +13°C° 0 mm 1 mps 766 mmHg 84%

    20 September, Friday

    Time Temperature Precipitation Wind Pressure Humidity
    00:00 +13°C° 0 mm 2 mps 766 mmHg 86%
    01:00 +12°C° 0 mm 1 mps 766 mmHg 88%
    02:00 +12°C° 0 mm 1 mps 765 mmHg 89%
    03:00 +12°C° 0 mm 1 mps 765 mmHg 90%
    04:00 +10°C° 0 mm 2 mps 765 mmHg 91%
    05:00 +10°C° 0 mm 2 mps 765 mmHg 92%
    06:00 +10°C° 0 mm 2 mps 764 mmHg 93%
    07:00 +12°C° 0 mm 3 mps 764 mmHg 84%
    08:00 +13°C° 0 mm 4 mps 764 mmHg 75%
    09:00 +15°C° 0 mm 5 mps 764 mmHg 66%
    10:00 +16°C° 0 mm 5 mps 764 mmHg 60%
    11:00 +19°C° 0 mm 5 mps 763 mmHg 54%
    12:00 +20°C° 0 mm 6 mps 763 mmHg 49%
    13:00 +20°C° 0 mm 6 mps 762 mmHg 47%
    14:00 +20°C° 0 mm 6 mps 761 mmHg 45%
    15:00 +21°C° 0 mm 6 mps 760 mmHg 44%
    16:00 +19°C° 0 mm 6 mps 760 mmHg 49%
    17:00 +17°C° 0 mm 5 mps 760 mmHg 53%
    18:00 +15°C° 0 mm 5 mps 759 mmHg 58%
    19:00 +14°C° 0 mm 5 mps 759 mmHg 59%
    20:00 +14°C° 0 mm 5 mps 759 mmHg 60%
    21:00 +13°C° 0 mm 5 mps 758 mmHg 62%
    22:00 +13°C° 0 mm 5 mps 758 mmHg 62%
    23:00 +13°C° 0 mm 5 mps 758 mmHg 62%

    21 September, Saturday

    Time Temperature Precipitation Wind Pressure Humidity
    00:00 +13°C° 0 mm 5 mps 757 mmHg 63%
    01:00 +13°C° 0 mm 5 mps 757 mmHg 63%
    02:00 +12°C° 0 mm 5 mps 756 mmHg 64%
    03:00 +12°C° 0 mm 5 mps 755 mmHg 65%
    04:00 +11°C° 0 mm 4 mps 755 mmHg 67%
    05:00 +11°C° 0 mm 4 mps 754 mmHg 70%
    06:00 +10°C° 0 mm 4 mps 754 mmHg 72%
    07:00 +12°C° 0 mm 5 mps 754 mmHg 69%
    08:00 +14°C° 0 mm 5 mps 753 mmHg 66%
    09:00 +15°C° 0 mm 6 mps 753 mmHg 62%
    10:00 +17°C° 0 mm 6 mps 753 mmHg 59%
    11:00 +20°C° 0 mm 6 mps 752 mmHg 56%
    12:00 +22°C° 0 mm 6 mps 752 mmHg 53%
    13:00 +22°C° 0.1 mm 6 mps 751 mmHg 54%
    14:00 +23°C° 0.1 mm 6 mps 751 mmHg 56%
    15:00 +23°C° 0.1 mm 6 mps 750 mmHg 58%
    16:00 +22°C° 0.1 mm 6 mps 750 mmHg 62%
    17:00 +21°C° 0.1 mm 5 mps 750 mmHg 67%
    18:00 +20°C° 0.1 mm 5 mps 749 mmHg 71%
    19:00 +20°C° 0.2 mm 5 mps 749 mmHg 76%
    20:00 +19°C° 0.2 mm 5 mps 749 mmHg 81%
    21:00 +19°C° 0.2 mm 5 mps 749 mmHg 86%
    22:00 +19°C° 0.3 mm 5 mps 749 mmHg 89%
    23:00 +17°C° 0.3 mm 5 mps 749 mmHg 92%

    22 September, Sunday

    Time Temperature Precipitation Wind Pressure Humidity
    00:00 +17°C° 0.3 mm 5 mps 749 mmHg 94%
    01:00 +17°C° 0 mm 5 mps 749 mmHg 94%
    02:00 +16°C° 0 mm 5 mps 749 mmHg 94%
    03:00 +17°C° 0 mm 4 mps 749 mmHg 94%
    04:00 +15°C° 0 mm 4 mps 749 mmHg 94%
    05:00 +15°C° 0 mm 4 mps 749 mmHg 94%
    06:00 +14°C° 0 mm 4 mps 749 mmHg 94%
    07:00 +15°C° 0 mm 4 mps 750 mmHg 89%
    08:00 +15°C° 0 mm 4 mps 750 mmHg 84%
    09:00 +17°C° 0 mm 4 mps 750 mmHg 79%
    10:00 +17°C° 0.1 mm 5 mps 750 mmHg 76%
    11:00 +17°C° 0.1 mm 6 mps 750 mmHg 73%
    12:00 +18°C° 0.1 mm 7 mps 750 mmHg 71%
    13:00 +17°C° 0.4 mm 7 mps 750 mmHg 73%
    14:00 +17°C° 0.4 mm 7 mps 750 mmHg 75%
    15:00 +16°C° 0.4 mm 7 mps 750 mmHg 77%
    16:00 +16°C° 0.1 mm 6 mps 751 mmHg 77%
    17:00 +15°C° 0.1 mm 6 mps 751 mmHg 77%
    18:00 +14°C° 0.1 mm 5 mps 752 mmHg 77%
    19:00 +13°C° 0 mm 5 mps 752 mmHg 80%
    20:00 +13°C° 0 mm 5 mps 753 mmHg 83%
    21:00 +12°C° 0 mm 5 mps 754 mmHg 86%
    22:00 +12°C° 0 mm 5 mps 754 mmHg 86%
    23:00 +10°C° 0 mm 5 mps 755 mmHg 87%
    Show more